Starlink 30073

operational
NORAD ID: 56840 Int'l Des: 2023-079 Owner: SPXS Country: US Constellation: starlink
LEOCIRCULAR

About Starlink 30073

Description loading...

Live Position

Loading 3D Globe...

Upcoming Passes

Altitude History

Altitude vs Time

uPlot chart will show altitude changes over time

Two-Line Element Set

1 56840U 23079T 25303.36801132 .00282873 00000-0 13688-2 0 9999
2 56840 42.9840 347.9403 0004211 95.1713 264.9639 15.80939139134539
Epoch: Oct 30, 2025 • Age: 81 hours

Current Status

Altitude 322.3 km
Velocity 7.72 km/s
Sub-Earth Point 32.40°N, 67.35°E
Launch Date Jun 4, 2023
Age 2.4 years
Type internet

Technical Details

Classification Payload
Mass 730.00 kg
Dry Mass 700.00 kg
Total Mass 730.00 kg
Length 0.30 m
Diameter 4.10 m
Span 29.00 m
Shape Box + pan
Manufacturer SPXS
Bus Type Starlink V2M
Phase Status In Orbit
Owner/State SPXS/US

Large Constellations

Loading constellations...